Simultaneous Nadir Overpasses (SNOs) Predictions

Prediction of SNOs between LANDSAT-8 and METOP-B Satellite Orbit:

Table of predicted SNOs for the next 14.0 days since TLE Epoch: 5/5/2017
Index Date (LANDSAT-8) Time (LANDSAT-8) Lat,Lon (LANDSAT-8) SZA (LANDSAT-8 ) Date (METOP-B) Time (METOP-B) Lat,Lon (METOP-B) SZA (METOP-B ) Distance(km) Time Diff (sec)
1 05/07/2017 23:16:17 -81.17, 51.70 113.60 05/07/2017 23:16:11 -81.18, 51.88 113.58 3.13 6
2 05/08/2017 00:05:43 81.18,-140.57 66.41 05/08/2017 00:06:51 81.18,-140.69 66.43 2.05 68
3 05/10/2017 18:01:45 80.10, -62.01 63.59 05/10/2017 18:00:32 80.40, -63.40 63.71 42.27 73
4 05/10/2017 18:50:35 -81.16, 117.91 114.37 05/10/2017 18:50:34 -81.16, 117.83 114.38 1.31 1
5 05/10/2017 19:40:00 81.19, -74.02 65.69 05/10/2017 19:41:12 81.19, -74.00 65.72 0.32 72
6 05/13/2017 13:35:26 81.14, 16.42 64.90 05/13/2017 13:34:16 81.14, 16.35 64.86 1.27 70
7 05/13/2017 14:24:52 -81.17,-175.57 115.06 05/13/2017 14:24:55 -81.17,-175.41 115.03 2.70 3
8 05/16/2017 09:09:42 81.14, 82.87 64.24 05/16/2017 09:08:37 81.14, 82.76 64.20 1.90 65
9 05/16/2017 09:59:08 -81.17,-109.09 115.71 05/16/2017 09:59:16 -81.17,-108.98 115.69 1.89 8
10 05/19/2017 04:43:59 81.14, 149.27 63.61 05/19/2017 04:42:59 81.14, 149.23 63.59 0.81 60




NCC Satellite Simultaneous Nadir Overpasses (SNOs) Prediction Service
